Date String (YYYY-MM-DD hh:mm:ss) UTC,Instrument flags,absolute air pressure of the measurement (hPa),sample flow rate (lpm),inlet stack bypass flow (lpm),air temperature of the measurement (°C),ambient temperature measured by the external sensor (°C),aerosol sample conditioner tube jacket temperature (°C),OPC LED temperature (°C),internal box temperature (°C),relative humidity of the measurement (%),span deviation,mass concentration of particles derived from Lorenz-Mie calculation of OPC scattering (μg/m³),mass concentration of particles derived from Lorenz-Mie calculation of OPC scattering (μg/m³),mass concentration of particles derived from Lorenz-Mie calculation of OPC scattering (μg/m³)
DateTimeUTC,F1_M11,P_M11,Q1_M11,Q2_M11,T1_M11,T2_M11,T3_M11,T4_M11,T5_M11,U1_M11,ZSPAN_M11,X0_M11,X2_M11,X1_M11
2023-06-24 22:00:00,SystemResetWarning,0830.0,5.01,000.00,029.3,024.4,000.0,037.6,030.8,12.2,0004.5,0012.12,0005.15,0004.46
2023-06-24 22:01:00,SystemResetWarning,0830.0,5.00,000.00,029.2,024.9,000.0,037.6,030.6,12.4,0004.6,0012.00,0005.16,0004.45
2023-06-24 22:02:00,SystemResetWarning,0830.1,4.99,000.00,029.1,025.4,000.0,037.6,030.5,12.5,0004.8,0010.96,0005.18,0004.43
2023-06-24 22:03:00,SystemResetWarning,0830.0,5.01,000.00,029.1,025.9,000.0,037.6,030.5,11.5,0005.0,0010.46,0005.14,0004.40
2023-06-24 22:04:00,SystemResetWarning,0830.1,4.99,000.00,029.1,026.3,000.0,037.6,030.6,12.4,0005.2,0010.48,0005.11,0004.37
2023-06-24 22:05:00,SystemResetWarning,0830.0,5.00,000.00,029.1,026.7,000.0,037.6,030.7,12.5,0005.3,0009.98,0005.10,0004.36
2023-06-24 22:06:00,SystemResetWarning,0830.1,5.00,000.00,029.2,027.1,000.0,037.6,030.8,13.4,0005.0,0009.92,0005.13,0004.34
2023-06-24 22:07:00,SystemResetWarning,0830.1,5.00,000.00,029.2,027.4,000.0,037.6,030.8,12.2,0004.8,0009.76,0005.10,0004.32
2023-06-24 22:08:00,SystemResetWarning,0830.1,5.00,000.00,029.2,027.6,000.0,037.7,030.9,12.4,0004.7,0009.66,0005.06,0004.30
2023-06-24 22:09:00,SystemResetWarning,0830.1,4.99,000.00,029.3,027.8,000.0,037.7,031.0,12.8,0004.7,0009.67,0005.06,0004.29
2023-06-24 22:10:00,SystemResetWarning,0830.1,5.00,000.00,029.3,027.9,000.0,037.7,031.0,12.6,0004.3,0009.87,0005.05,0004.27
2023-06-24 22:11:00,SystemResetWarning,0830.1,5.00,000.00,029.3,026.2,000.0,037.7,031.0,12.0,0004.1,0010.28,0005.06,0004.26
2023-06-24 22:12:00,SystemResetWarning,0830.1,5.00,000.00,029.3,024.3,000.0,037.6,030.9,12.0,0001.3,0010.52,0005.06,0004.24
2023-06-24 22:13:00,SystemResetWarning,0830.0,5.02,000.00,029.3,024.5,000.0,037.6,030.8,13.1,0000.0,0010.71,0005.05,0004.22
2023-06-24 22:14:00,SystemResetWarning,0830.1,5.00,000.00,029.2,024.9,000.0,037.6,030.6,12.6,0000.0,0010.92,0005.01,0004.21
2023-06-24 22:15:00,SystemResetWarning,0830.0,5.00,000.00,029.1,025.4,000.0,037.6,030.5,13.1,0000.0,0010.94,0005.03,0004.21
2023-06-24 22:16:00,SystemResetWarning,0830.0,5.01,000.00,029.1,025.9,000.0,037.6,030.5,14.4,0000.0,0011.16,0005.02,0004.21
2023-06-24 22:17:00,SystemResetWarning,0830.1,5.00,000.00,029.1,026.4,000.0,037.6,030.6,13.3,0000.0,0011.06,0004.98,0004.21
2023-06-24 22:18:00,SystemResetWarning,0830.0,4.99,000.00,029.1,026.8,000.0,037.6,030.7,13.5,0002.6,0011.05,0005.02,0004.22
2023-06-24 22:19:00,SystemResetWarning,0830.1,5.00,000.00,029.2,027.1,000.0,037.6,030.8,12.7,0002.4,0011.13,0005.02,0004.22
2023-06-24 22:20:00,SystemResetWarning,0830.1,5.00,000.00,029.2,027.4,000.0,037.6,030.9,13.5,0002.7,0011.41,0004.97,0004.21
2023-06-24 22:21:00,SystemResetWarning,0830.0,5.01,000.00,029.2,027.7,000.0,037.7,030.9,13.0,0003.4,0011.19,0004.96,0004.21
2023-06-24 22:22:00,SystemResetWarning,0830.1,5.01,000.00,029.3,027.9,000.0,037.7,031.0,11.9,0002.1,0011.31,0004.99,0004.22
2023-06-24 22:23:00,SystemResetWarning,0830.0,5.01,000.00,029.3,028.0,000.0,037.7,031.0,12.7,0002.9,0011.14,0004.99,0004.23
2023-06-24 22:24:00,SystemResetWarning,0830.0,4.98,000.00,029.4,027.1,000.0,037.7,031.0,13.1,0004.4,0011.56,0005.01,0004.25
2023-06-24 22:25:00,SystemResetWarning,0830.0,5.01,000.00,029.3,025.0,000.0,037.6,030.7,12.2,0002.2,0011.14,0005.02,0004.26
2023-06-24 22:26:00,SystemResetWarning,0830.0,5.01,000.00,029.3,024.5,000.0,037.6,030.8,12.6,0000.0,0011.19,0005.05,0004.26
2023-06-24 22:27:00,SystemResetWarning,0830.0,5.00,000.00,029.2,024.9,000.0,037.6,030.7,12.7,0000.0,0010.96,0005.05,0004.28
2023-06-24 22:28:00,SystemResetWarning,0830.0,5.00,000.00,029.1,025.4,000.0,037.6,030.5,13.0,0000.0,0011.22,0005.09,0004.28
2023-06-24 22:29:00,SystemResetWarning,0830.0,5.00,000.00,029.1,025.9,000.0,037.6,030.5,13.4,0000.0,0011.36,0005.08,0004.28
2023-06-24 22:30:00,SystemResetWarning,0830.0,5.00,000.00,029.1,026.3,000.0,037.6,030.6,13.2,0000.0,0012.00,0005.09,0004.28
2023-06-24 22:31:00,SystemResetWarning,0830.0,4.99,000.00,029.1,026.8,000.0,037.6,030.7,14.5,0000.0,0012.10,0005.13,0004.29
2023-06-24 22:32:00,SystemResetWarning,0830.1,5.00,000.00,029.2,027.1,000.0,037.6,030.8,14.6,0000.0,0012.29,0005.15,0004.30
2023-06-24 22:33:00,SystemResetWarning,0830.1,5.00,000.00,029.2,027.4,000.0,037.6,030.9,14.2,0000.0,0012.51,0005.15,0004.31
2023-06-24 22:34:00,SystemResetWarning,0830.1,5.01,000.00,029.3,027.7,000.0,037.7,030.9,12.7,0000.0,0012.35,0005.15,0004.31
2023-06-24 22:35:00,SystemResetWarning,0830.1,4.99,000.00,029.3,027.9,000.0,037.7,031.0,13.2,0000.0,0011.82,0005.17,0004.30
2023-06-24 22:36:00,SystemResetWarning,0830.1,5.00,000.00,029.4,028.0,000.0,037.7,031.1,13.0,0000.0,0011.94,0005.19,0004.31
2023-06-24 22:37:00,SystemResetWarning,0830.1,4.99,000.00,029.4,026.6,000.0,037.7,031.1,13.0,0000.0,0011.90,0005.17,0004.31
2023-06-24 22:38:00,SystemResetWarning,0830.1,5.00,000.00,029.3,024.5,000.0,037.6,030.9,13.2,0000.0,0012.57,0005.17,0004.30
2023-06-24 22:39:00,SystemResetWarning,0830.1,5.01,000.00,029.3,024.5,000.0,037.6,030.9,13.3,0000.0,0012.57,0005.15,0004.29
2023-06-24 22:40:00,SystemResetWarning,0830.1,5.00,000.00,029.2,024.9,000.0,037.6,030.7,11.9,0000.0,0012.29,0005.13,0004.30
2023-06-24 22:41:00,SystemResetWarning,0830.1,4.99,000.00,029.2,025.4,000.0,037.6,030.6,13.0,0000.0,0011.82,0005.13,0004.29
2023-06-24 22:42:00,SystemResetWarning,0830.1,5.00,000.00,029.1,025.9,000.0,037.6,030.6,14.3,0000.0,0011.40,0005.10,0004.28
2023-06-24 22:43:00,SystemResetWarning,0830.1,5.00,000.00,029.1,026.4,000.0,037.6,030.7,14.3,0000.0,0011.54,0005.09,0004.29
2023-06-24 22:44:00,SystemResetWarning,0830.1,4.99,000.00,029.2,026.8,000.0,037.6,030.7,12.7,0000.0,0011.94,0005.11,0004.30
2023-06-24 22:45:00,SystemResetWarning,0830.1,5.00,000.00,029.2,027.2,000.0,037.7,030.8,11.6,0000.0,0012.07,0005.11,0004.30
2023-06-24 22:46:00,SystemResetWarning,0830.0,5.00,000.00,029.2,027.5,000.0,037.7,030.9,13.1,0000.0,0011.91,0005.06,0004.31
2023-06-24 22:47:00,SystemResetWarning,0830.0,5.00,000.00,029.3,027.7,000.0,037.7,031.0,13.0,0000.0,0012.22,0005.10,0004.30
2023-06-24 22:48:00,SystemResetWarning,0830.0,5.00,000.00,029.3,027.9,000.0,037.7,031.0,12.9,0000.8,0012.38,0005.10,0004.31
2023-06-24 22:49:00,SystemResetWarning,0830.0,4.99,000.00,029.4,028.0,000.0,037.7,031.1,14.4,0000.0,0011.72,0005.10,0004.32
2023-06-24 22:50:00,SystemResetWarning,0830.1,4.99,000.00,029.4,026.2,000.0,037.7,031.1,12.4,0000.4,0011.53,0005.06,0004.31
2023-06-24 22:51:00,SystemResetWarning,0830.0,5.01,000.00,029.3,024.4,000.0,037.6,030.9,12.6,0004.1,0012.38,0005.07,0004.31
2023-06-24 22:52:00,SystemResetWarning,0830.0,5.01,000.00,029.3,024.6,000.0,037.6,030.8,12.8,0005.1,0012.35,0005.05,0004.30
2023-06-24 22:53:00,SystemResetWarning,0830.1,5.00,000.00,029.2,025.1,000.0,037.6,030.6,13.2,0004.8,0012.39,0005.04,0004.30
2023-06-24 22:54:00,SystemResetWarning,0830.0,5.00,000.00,029.2,025.6,000.0,037.6,030.6,13.1,0004.7,0012.35,0005.05,0004.29
2023-06-24 22:55:00,SystemResetWarning,0830.0,5.01,000.00,029.1,026.1,000.0,037.6,030.6,12.8,0004.4,0011.66,0005.03,0004.28
2023-06-24 22:56:00,SystemResetWarning,0830.1,4.99,000.00,029.2,026.5,000.0,037.6,030.7,12.6,0004.0,0011.73,0005.00,0004.27
2023-06-24 22:57:00,SystemResetWarning,0830.1,5.00,000.00,029.2,026.9,000.0,037.7,030.8,12.1,0000.6,0012.04,0005.01,0004.27
2023-06-24 22:58:00,SystemResetWarning,0830.1,5.00,000.00,029.2,027.3,000.0,037.7,030.9,12.0,0000.3,0012.03,0004.96,0004.27
2023-06-24 22:59:00,SystemResetWarning,0830.1,5.00,000.00,029.3,027.5,000.0,037.7,030.9,12.2,0000.0,0011.68,0004.96,0004.27
